contact:dominique.lefevre@mio.osupytheas.fr, maurice.libes@osupytheas.fr, didier.mallarino@osupytheas.fr
Project:EMSO http://www.emso-fr.org/EMSO-France
Depth: 2436.0 m
Title:EMSO Ligure Ouest : Data MII capteur CSTAR
DateTime,Latitude,Longitude,Instrument_Serial,Reference_Counts,Signal_Counts,Corrected_Signal_raw_counts,Calculated_Beam_c_inverse_meters,Internal_thermistor_counts
DateTime,Latitude,Longitude,Instrument_Serial,Reference_Counts,Signal_Counts,Corrected_Signal_raw_counts,Calculated_Beam_c_inverse_meters,Internal_thermistor_counts
2021-11-08T00:02:32,42.805,6.029,CST-1368DR,5096,6715,14096,0.410,551
2021-11-08T00:05:33,42.805,6.029,CST-1368DR,5096,6719,14104,0.407,551
2021-11-08T00:08:35,42.805,6.029,CST-1368DR,5096,6719,14104,0.407,551
2021-11-08T00:11:36,42.805,6.029,CST-1368DR,5096,6719,14104,0.407,551
2021-11-08T00:14:38,42.805,6.029,CST-1368DR,5096,6719,14105,0.407,551
2021-11-08T00:17:39,42.805,6.029,CST-1368DR,5096,6719,14104,0.407,551
2021-11-08T00:20:41,42.805,6.029,CST-1368DR,5096,6719,14104,0.407,551
2021-11-08T00:23:43,42.805,6.029,CST-1368DR,5096,6718,14102,0.408,551
2021-11-08T00:26:44,42.805,6.029,CST-1368DR,5096,6719,14104,0.407,551
2021-11-08T00:29:46,42.805,6.029,CST-1368DR,5096,6720,14105,0.407,551
2021-11-08T00:32:47,42.805,6.029,CST-1368DR,5096,6719,14103,0.408,551
2021-11-08T00:35:49,42.805,6.029,CST-1368DR,5096,6719,14104,0.407,551
2021-11-08T00:38:51,42.805,6.029,CST-1368DR,5096,6718,14103,0.408,551
2021-11-08T00:41:52,42.805,6.029,CST-1368DR,5096,6719,14104,0.407,551
2021-11-08T00:44:54,42.805,6.029,CST-1368DR,5096,6719,14104,0.407,551
2021-11-08T00:47:55,42.805,6.029,CST-1368DR,5096,6720,14105,0.407,551
2021-11-08T00:50:57,42.805,6.029,CST-1368DR,5096,6718,14102,0.408,551
2021-11-08T00:53:58,42.805,6.029,CST-1368DR,5096,6719,14104,0.407,551
2021-11-08T00:57:00,42.805,6.029,CST-1368DR,5096,6719,14104,0.407,551
2021-11-08T01:00:02,42.805,6.029,CST-1368DR,5096,6719,14105,0.407,551
2021-11-08T01:03:03,42.805,6.029,CST-1368DR,5096,6719,14105,0.407,551
2021-11-08T01:06:05,42.805,6.029,CST-1368DR,5096,6718,14102,0.408,551
2021-11-08T01:09:06,42.805,6.029,CST-1368DR,5096,6719,14104,0.407,551
2021-11-08T01:12:08,42.805,6.029,CST-1368DR,5096,6719,14104,0.407,551
2021-11-08T01:15:10,42.805,6.029,CST-1368DR,5096,6719,14104,0.407,551
2021-11-08T01:18:11,42.805,6.029,CST-1368DR,5096,6719,14104,0.407,551
2021-11-08T01:21:13,42.805,6.029,CST-1368DR,5096,6719,14103,0.408,551
2021-11-08T01:24:14,42.805,6.029,CST-1368DR,5096,6718,14102,0.408,551
2021-11-08T01:27:16,42.805,6.029,CST-1368DR,5096,6718,14102,0.408,551
2021-11-08T01:30:17,42.805,6.029,CST-1368DR,5096,6718,14102,0.408,551
2021-11-08T01:33:19,42.805,6.029,CST-1368DR,5096,6718,14103,0.408,551
2021-11-08T01:36:21,42.805,6.029,CST-1368DR,5096,6718,14102,0.408,551
2021-11-08T01:39:22,42.805,6.029,CST-1368DR,5096,6718,14102,0.408,551
2021-11-08T01:42:24,42.805,6.029,CST-1368DR,5096,6719,14104,0.407,551
2021-11-08T01:45:25,42.805,6.029,CST-1368DR,5096,6719,14103,0.408,551
2021-11-08T01:48:27,42.805,6.029,CST-1368DR,5096,6720,14105,0.407,551
2021-11-08T01:51:28,42.805,6.029,CST-1368DR,5096,6719,14105,0.407,551
2021-11-08T01:54:30,42.805,6.029,CST-1368DR,5096,6719,14103,0.408,551
2021-11-08T01:57:32,42.805,6.029,CST-1368DR,5096,6720,14105,0.407,551
2021-11-08T02:00:33,42.805,6.029,CST-1368DR,5096,6719,14105,0.407,551
2021-11-08T02:03:35,42.805,6.029,CST-1368DR,5096,6719,14104,0.407,551
2021-11-08T02:06:36,42.805,6.029,CST-1368DR,5096,6719,14103,0.408,551
2021-11-08T02:09:38,42.805,6.029,CST-1368DR,5096,6718,14102,0.408,551
2021-11-08T02:12:40,42.805,6.029,CST-1368DR,5096,6718,14101,0.408,551
2021-11-08T02:15:41,42.805,6.029,CST-1368DR,5096,6719,14103,0.408,551
2021-11-08T02:18:43,42.805,6.029,CST-1368DR,5096,6719,14104,0.407,551
2021-11-08T02:21:44,42.805,6.029,CST-1368DR,5096,6718,14103,0.408,551
2021-11-08T02:24:46,42.805,6.029,CST-1368DR,5096,6718,14103,0.408,551
2021-11-08T02:27:47,42.805,6.029,CST-1368DR,5096,6719,14103,0.408,551
2021-11-08T02:30:49,42.805,6.029,CST-1368DR,5096,6719,14103,0.408,551
2021-11-08T02:33:51,42.805,6.029,CST-1368DR,5096,6718,14102,0.408,551
2021-11-08T02:36:52,42.805,6.029,CST-1368DR,5096,6718,14103,0.408,551
2021-11-08T02:39:54,42.805,6.029,CST-1368DR,5096,6719,14103,0.408,551
2021-11-08T02:42:55,42.805,6.029,CST-1368DR,5096,6719,14104,0.407,551
2021-11-08T02:45:57,42.805,6.029,CST-1368DR,5096,6718,14103,0.408,551
2021-11-08T02:48:59,42.805,6.029,CST-1368DR,5096,6719,14104,0.407,551
2021-11-08T02:52:00,42.805,6.029,CST-1368DR,5096,6719,14104,0.407,551
2021-11-08T02:55:02,42.805,6.029,CST-1368DR,5096,6718,14103,0.408,551
2021-11-08T02:58:03,42.805,6.029,CST-1368DR,5096,6717,14100,0.408,551
2021-11-08T03:01:05,42.805,6.029,CST-1368DR,5096,6719,14104,0.407,551
2021-11-08T03:04:06,42.805,6.029,CST-1368DR,5096,6718,14102,0.408,551
2021-11-08T03:07:08,42.805,6.029,CST-1368DR,5096,6718,14102,0.408,551
2021-11-08T03:10:10,42.805,6.029,CST-1368DR,5096,6718,14103,0.408,551
2021-11-08T03:13:11,42.805,6.029,CST-1368DR,5096,6718,14102,0.408,551
2021-11-08T03:16:13,42.805,6.029,CST-1368DR,5096,6718,14103,0.408,551
2021-11-08T03:19:14,42.805,6.029,CST-1368DR,5096,6718,14102,0.408,551
2021-11-08T03:22:16,42.805,6.029,CST-1368DR,5096,6718,14102,0.408,551
2021-11-08T03:25:18,42.805,6.029,CST-1368DR,5096,6718,14102,0.408,551
2021-11-08T03:28:19,42.805,6.029,CST-1368DR,5096,6718,14102,0.408,551
2021-11-08T03:31:21,42.805,6.029,CST-1368DR,5096,6719,14103,0.408,551
2021-11-08T03:34:22,42.805,6.029,CST-1368DR,5096,6719,14103,0.408,551
2021-11-08T03:37:24,42.805,6.029,CST-1368DR,5096,6719,14103,0.408,551
2021-11-08T03:40:25,42.805,6.029,CST-1368DR,5096,6718,14103,0.408,551
2021-11-08T03:43:27,42.805,6.029,CST-1368DR,5096,6718,14102,0.408,551
2021-11-08T03:46:29,42.805,6.029,CST-1368DR,5096,6718,14102,0.408,551
2021-11-08T03:49:30,42.805,6.029,CST-1368DR,5096,6718,14102,0.408,551
2021-11-08T03:52:32,42.805,6.029,CST-1368DR,5096,6718,14102,0.408,551
2021-11-08T03:55:33,42.805,6.029,CST-1368DR,5096,6717,14101,0.408,551
2021-11-08T03:58:35,42.805,6.029,CST-1368DR,5096,6718,14103,0.408,551
2021-11-08T04:01:36,42.805,6.029,CST-1368DR,5096,6718,14101,0.408,551
2021-11-08T04:04:38,42.805,6.029,CST-1368DR,5096,6718,14102,0.408,551
2021-11-08T04:07:40,42.805,6.029,CST-1368DR,5096,6718,14101,0.408,551
2021-11-08T04:10:41,42.805,6.029,CST-1368DR,5096,6717,14100,0.408,550
2021-11-08T04:13:43,42.805,6.029,CST-1368DR,5096,6717,14100,0.408,551
2021-11-08T04:16:44,42.805,6.029,CST-1368DR,5096,6717,14100,0.408,551
2021-11-08T04:19:46,42.805,6.029,CST-1368DR,5096,6718,14101,0.408,551
2021-11-08T04:22:48,42.805,6.029,CST-1368DR,5096,6718,14102,0.408,551
2021-11-08T04:25:49,42.805,6.029,CST-1368DR,5096,6718,14102,0.408,551
2021-11-08T04:28:51,42.805,6.029,CST-1368DR,5096,6718,14102,0.408,551
2021-11-08T04:31:52,42.805,6.029,CST-1368DR,5096,6718,14102,0.408,551
2021-11-08T04:34:54,42.805,6.029,CST-1368DR,5096,6718,14101,0.408,551
2021-11-08T04:37:55,42.805,6.029,CST-1368DR,5096,6718,14103,0.408,551
2021-11-08T04:40:57,42.805,6.029,CST-1368DR,5096,6716,14099,0.409,551
2021-11-08T04:43:59,42.805,6.029,CST-1368DR,5096,6718,14102,0.408,551
2021-11-08T04:47:00,42.805,6.029,CST-1368DR,5096,6717,14100,0.408,551
2021-11-08T04:50:02,42.805,6.029,CST-1368DR,5096,6717,14101,0.408,551
2021-11-08T04:53:03,42.805,6.029,CST-1368DR,5095,6717,14103,0.408,551
2021-11-08T04:56:05,42.805,6.029,CST-1368DR,5095,6704,14076,0.415,551
2021-11-08T04:59:07,42.805,6.029,CST-1368DR,5096,6717,14101,0.408,551
2021-11-08T05:02:08,42.805,6.029,CST-1368DR,5095,6716,14100,0.408,551
2021-11-08T05:05:10,42.805,6.029,CST-1368DR,5096,6718,14102,0.408,551
2021-11-08T05:08:11,42.805,6.029,CST-1368DR,5096,6718,14102,0.408,551
2021-11-08T05:11:13,42.805,6.029,CST-1368DR,5096,6718,14101,0.408,551
2021-11-08T05:14:14,42.805,6.029,CST-1368DR,5095,6717,14103,0.408,551
2021-11-08T05:17:16,42.805,6.029,CST-1368DR,5095,6717,14103,0.408,551
2021-11-08T05:20:18,42.805,6.029,CST-1368DR,5096,6717,14101,0.408,551
2021-11-08T05:23:19,42.805,6.029,CST-1368DR,5095,6718,14104,0.407,551
2021-11-08T05:26:21,42.805,6.029,CST-1368DR,5096,6717,14100,0.408,551
2021-11-08T05:29:22,42.805,6.029,CST-1368DR,5095,6718,14104,0.407,550
2021-11-08T05:32:24,42.805,6.029,CST-1368DR,5096,6717,14101,0.408,551
2021-11-08T05:35:25,42.805,6.029,CST-1368DR,5095,6718,14104,0.407,551
2021-11-08T05:38:27,42.805,6.029,CST-1368DR,5095,6717,14103,0.408,551
2021-11-08T05:41:29,42.805,6.029,CST-1368DR,5095,6718,14104,0.407,551
2021-11-08T05:44:30,42.805,6.029,CST-1368DR,5095,6717,14103,0.408,551
2021-11-08T05:47:32,42.805,6.029,CST-1368DR,5096,6717,14100,0.408,551
2021-11-08T05:50:33,42.805,6.029,CST-1368DR,5096,6716,14099,0.409,551
2021-11-08T05:53:35,42.805,6.029,CST-1368DR,5095,6718,14104,0.407,551
2021-11-08T05:56:37,42.805,6.029,CST-1368DR,5095,6717,14103,0.408,551
2021-11-08T05:59:38,42.805,6.029,CST-1368DR,5095,6718,14105,0.407,551
2021-11-08T06:02:40,42.805,6.029,CST-1368DR,5095,6718,14104,0.407,551
2021-11-08T06:05:41,42.805,6.029,CST-1368DR,5095,6717,14103,0.408,551
2021-11-08T06:08:43,42.805,6.029,CST-1368DR,5095,6717,14102,0.408,551
2021-11-08T06:11:44,42.805,6.029,CST-1368DR,5095,6717,14103,0.408,551
2021-11-08T06:14:46,42.805,6.029,CST-1368DR,5096,6718,14102,0.408,551
2021-11-08T06:17:48,42.805,6.029,CST-1368DR,5095,6717,14102,0.408,551
2021-11-08T06:20:49,42.805,6.029,CST-1368DR,5096,6717,14101,0.408,551
2021-11-08T06:23:51,42.805,6.029,CST-1368DR,5095,6718,14104,0.407,551
2021-11-08T06:26:52,42.805,6.029,CST-1368DR,5096,6717,14100,0.408,551
2021-11-08T06:29:54,42.805,6.029,CST-1368DR,5096,6717,14101,0.408,551
2021-11-08T06:32:56,42.805,6.029,CST-1368DR,5095,6717,14102,0.408,551
2021-11-08T06:35:57,42.805,6.029,CST-1368DR,5095,6716,14100,0.408,551
2021-11-08T06:38:59,42.805,6.029,CST-1368DR,5095,6717,14103,0.408,551
2021-11-08T06:42:00,42.805,6.029,CST-1368DR,5095,6717,14103,0.408,551
2021-11-08T06:45:02,42.805,6.029,CST-1368DR,5095,6717,14103,0.408,551
2021-11-08T06:48:03,42.805,6.029,CST-1368DR,5095,6718,14104,0.407,551
2021-11-08T06:51:05,42.805,6.029,CST-1368DR,5095,6717,14103,0.408,551
2021-11-08T06:54:07,42.805,6.029,CST-1368DR,5095,6717,14103,0.408,551
2021-11-08T06:57:08,42.805,6.029,CST-1368DR,5095,6717,14102,0.408,551
2021-11-08T07:00:10,42.805,6.029,CST-1368DR,5095,6717,14102,0.408,551
2021-11-08T07:03:11,42.805,6.029,CST-1368DR,5095,6717,14103,0.408,551
2021-11-08T07:06:13,42.805,6.029,CST-1368DR,5095,6716,14101,0.408,551
2021-11-08T07:09:14,42.805,6.029,CST-1368DR,5095,6717,14102,0.408,551
2021-11-08T07:12:16,42.805,6.029,CST-1368DR,5095,6716,14100,0.408,551
2021-11-08T07:15:18,42.805,6.029,CST-1368DR,5095,6717,14102,0.408,551
2021-11-08T07:18:19,42.805,6.029,CST-1368DR,5095,6717,14103,0.408,551
2021-11-08T07:21:21,42.805,6.029,CST-1368DR,5095,6717,14102,0.408,551
2021-11-08T07:24:22,42.805,6.029,CST-1368DR,5095,6717,14103,0.408,551
2021-11-08T07:27:24,42.805,6.029,CST-1368DR,5095,6717,14103,0.408,551
2021-11-08T07:30:26,42.805,6.029,CST-1368DR,5095,6717,14103,0.408,551
2021-11-08T07:33:27,42.805,6.029,CST-1368DR,5095,6717,14102,0.408,551
2021-11-08T07:36:29,42.805,6.029,CST-1368DR,5095,6718,14105,0.407,551
2021-11-08T07:39:30,42.805,6.029,CST-1368DR,5095,6717,14103,0.408,551
2021-11-08T07:42:32,42.805,6.029,CST-1368DR,5095,6717,14103,0.408,551
2021-11-08T07:45:33,42.805,6.029,CST-1368DR,5095,6717,14103,0.408,551
2021-11-08T07:48:35,42.805,6.029,CST-1368DR,5095,6716,14101,0.408,551
2021-11-08T07:51:37,42.805,6.029,CST-1368DR,5095,6717,14103,0.408,551
2021-11-08T07:54:38,42.805,6.029,CST-1368DR,5095,6718,14104,0.407,551
2021-11-08T07:57:40,42.805,6.029,CST-1368DR,5095,6717,14103,0.408,551
2021-11-08T08:00:41,42.805,6.029,CST-1368DR,5095,6716,14101,0.408,551
2021-11-08T08:03:43,42.805,6.029,CST-1368DR,5095,6717,14102,0.408,551
2021-11-08T08:06:45,42.805,6.029,CST-1368DR,5095,6717,14103,0.408,551
2021-11-08T08:09:46,42.805,6.029,CST-1368DR,5095,6715,14099,0.409,551
2021-11-08T08:12:48,42.805,6.029,CST-1368DR,5095,6717,14103,0.408,551
2021-11-08T08:15:49,42.805,6.029,CST-1368DR,5095,6717,14103,0.408,551
2021-11-08T08:18:51,42.805,6.029,CST-1368DR,5095,6717,14103,0.408,551
2021-11-08T08:21:52,42.805,6.029,CST-1368DR,5095,6717,14103,0.408,551
2021-11-08T08:24:54,42.805,6.029,CST-1368DR,5095,6718,14104,0.407,551
2021-11-08T08:27:56,42.805,6.029,CST-1368DR,5095,6717,14103,0.408,551
2021-11-08T08:30:57,42.805,6.029,CST-1368DR,5095,6717,14103,0.408,551
2021-11-08T08:33:59,42.805,6.029,CST-1368DR,5095,6706,14079,0.414,551
2021-11-08T08:37:00,42.805,6.029,CST-1368DR,5095,6713,14094,0.410,551
2021-11-08T08:40:02,42.805,6.029,CST-1368DR,5095,6717,14102,0.408,551
2021-11-08T08:43:03,42.805,6.029,CST-1368DR,5095,6718,14104,0.407,551
2021-11-08T08:46:05,42.805,6.029,CST-1368DR,5095,6717,14103,0.408,551
2021-11-08T08:49:07,42.805,6.029,CST-1368DR,5095,6716,14101,0.408,551
2021-11-08T08:52:08,42.805,6.029,CST-1368DR,5095,6717,14102,0.408,551
2021-11-08T08:55:10,42.805,6.029,CST-1368DR,5095,6714,14097,0.409,551
2021-11-08T08:58:11,42.805,6.029,CST-1368DR,5095,6715,14099,0.409,551
2021-11-08T09:01:13,42.805,6.029,CST-1368DR,5095,6716,14101,0.408,551
2021-11-08T09:04:15,42.805,6.029,CST-1368DR,5095,6717,14102,0.408,551
2021-11-08T09:07:16,42.805,6.029,CST-1368DR,5095,6716,14101,0.408,551
2021-11-08T09:10:18,42.805,6.029,CST-1368DR,5095,6718,14104,0.407,551
2021-11-08T09:13:19,42.805,6.029,CST-1368DR,5095,6716,14101,0.408,551
2021-11-08T09:16:21,42.805,6.029,CST-1368DR,5095,6716,14101,0.408,551
2021-11-08T09:19:22,42.805,6.029,CST-1368DR,5095,6716,14101,0.408,551
2021-11-08T09:22:24,42.805,6.029,CST-1368DR,5095,6717,14102,0.408,551
2021-11-08T09:25:26,42.805,6.029,CST-1368DR,5095,6717,14103,0.408,551
2021-11-08T09:28:27,42.805,6.029,CST-1368DR,5095,6717,14103,0.408,551
2021-11-08T09:31:29,42.805,6.029,CST-1368DR,5095,6717,14103,0.408,551
2021-11-08T09:34:30,42.805,6.029,CST-1368DR,5095,6717,14102,0.408,551
2021-11-08T09:37:32,42.805,6.029,CST-1368DR,5095,6717,14102,0.408,551
2021-11-08T09:40:33,42.805,6.029,CST-1368DR,5095,6717,14102,0.408,551
2021-11-08T09:43:35,42.805,6.029,CST-1368DR,5095,6716,14100,0.408,550
2021-11-08T09:46:37,42.805,6.029,CST-1368DR,5095,6716,14101,0.408,551
2021-11-08T09:49:38,42.805,6.029,CST-1368DR,5095,6717,14103,0.408,551
2021-11-08T09:52:40,42.805,6.029,CST-1368DR,5095,6717,14102,0.408,551
2021-11-08T09:55:41,42.805,6.029,CST-1368DR,5095,6717,14103,0.408,551
2021-11-08T09:58:43,42.805,6.029,CST-1368DR,5095,6717,14103,0.408,551
2021-11-08T10:01:45,42.805,6.029,CST-1368DR,5095,6717,14103,0.408,551
2021-11-08T10:04:46,42.805,6.029,CST-1368DR,5095,6716,14101,0.408,551
2021-11-08T10:07:48,42.805,6.029,CST-1368DR,5095,6717,14102,0.408,551
2021-11-08T10:10:49,42.805,6.029,CST-1368DR,5095,6717,14103,0.408,551
2021-11-08T10:13:51,42.805,6.029,CST-1368DR,5095,6716,14101,0.408,551
2021-11-08T10:16:52,42.805,6.029,CST-1368DR,5095,6716,14101,0.408,551
2021-11-08T10:19:54,42.805,6.029,CST-1368DR,5095,6717,14102,0.408,551
2021-11-08T10:22:56,42.805,6.029,CST-1368DR,5095,6717,14102,0.408,551
2021-11-08T10:25:57,42.805,6.029,CST-1368DR,5095,6717,14103,0.408,551
2021-11-08T10:28:59,42.805,6.029,CST-1368DR,5095,6717,14103,0.408,551
2021-11-08T10:32:00,42.805,6.029,CST-1368DR,5095,6717,14103,0.408,551
2021-11-08T10:35:02,42.805,6.029,CST-1368DR,5095,6718,14104,0.407,551
2021-11-08T10:45:06,42.805,6.029,CST-1368DR,5095,6717,14102,0.408,551
2021-11-08T10:48:08,42.805,6.029,CST-1368DR,5095,6717,14102,0.408,551
2021-11-08T10:51:09,42.805,6.029,CST-1368DR,5095,6716,14101,0.408,551
2021-11-08T10:54:11,42.805,6.029,CST-1368DR,5095,6717,14102,0.408,551
2021-11-08T10:57:12,42.805,6.029,CST-1368DR,5095,6717,14102,0.408,551
2021-11-08T11:00:14,42.805,6.029,CST-1368DR,5095,6716,14101,0.408,551
2021-11-08T11:03:15,42.805,6.029,CST-1368DR,5095,6717,14102,0.408,551
2021-11-08T11:06:17,42.805,6.029,CST-1368DR,5095,6717,14103,0.408,551
2021-11-08T11:09:19,42.805,6.029,CST-1368DR,5095,6716,14101,0.408,551
2021-11-08T11:12:20,42.805,6.029,CST-1368DR,5095,6716,14101,0.408,551
2021-11-08T11:15:22,42.805,6.029,CST-1368DR,5095,6717,14103,0.408,551
2021-11-08T11:18:23,42.805,6.029,CST-1368DR,5095,6716,14101,0.408,551
2021-11-08T11:21:25,42.805,6.029,CST-1368DR,5095,6717,14103,0.408,551
2021-11-08T11:24:27,42.805,6.029,CST-1368DR,5095,6717,14103,0.408,551
2021-11-08T11:27:28,42.805,6.029,CST-1368DR,5095,6717,14103,0.408,550
2021-11-08T11:30:30,42.805,6.029,CST-1368DR,5095,6716,14101,0.408,551
2021-11-08T11:33:31,42.805,6.029,CST-1368DR,5095,6717,14103,0.408,551
2021-11-08T11:36:33,42.805,6.029,CST-1368DR,5095,6717,14103,0.408,551
2021-11-08T11:39:34,42.805,6.029,CST-1368DR,5095,6716,14101,0.408,551
2021-11-08T11:42:36,42.805,6.029,CST-1368DR,5095,6717,14103,0.408,551
2021-11-08T11:45:38,42.805,6.029,CST-1368DR,5095,6717,14102,0.408,551
2021-11-08T11:48:39,42.805,6.029,CST-1368DR,5095,6716,14101,0.408,551
2021-11-08T11:51:41,42.805,6.029,CST-1368DR,5095,6716,14101,0.408,551
2021-11-08T11:54:42,42.805,6.029,CST-1368DR,5095,6716,14101,0.408,551
2021-11-08T11:57:44,42.805,6.029,CST-1368DR,5095,6716,14101,0.408,551
2021-11-08T12:00:46,42.805,6.029,CST-1368DR,5095,6717,14102,0.408,551
2021-11-08T12:03:47,42.805,6.029,CST-1368DR,5095,6715,14099,0.409,551
2021-11-08T12:06:49,42.805,6.029,CST-1368DR,5095,6717,14102,0.408,551
2021-11-08T12:09:50,42.805,6.029,CST-1368DR,5095,6716,14100,0.408,551
2021-11-08T12:12:52,42.805,6.029,CST-1368DR,5095,6716,14101,0.408,551
2021-11-08T12:15:53,42.805,6.029,CST-1368DR,5095,6716,14100,0.408,551
2021-11-08T12:18:55,42.805,6.029,CST-1368DR,5095,6716,14101,0.408,551
2021-11-08T12:21:57,42.805,6.029,CST-1368DR,5095,6716,14101,0.408,551
2021-11-08T12:24:58,42.805,6.029,CST-1368DR,5095,6715,14098,0.409,551
2021-11-08T12:28:00,42.805,6.029,CST-1368DR,5095,6714,14096,0.410,551
2021-11-08T12:31:01,42.805,6.029,CST-1368DR,5095,6713,14095,0.410,551
2021-11-08T12:34:03,42.805,6.029,CST-1368DR,5095,6713,14093,0.410,551
2021-11-08T12:37:04,42.805,6.029,CST-1368DR,5095,6716,14100,0.408,551
2021-11-08T12:40:06,42.805,6.029,CST-1368DR,5095,6715,14098,0.409,551
2021-11-08T12:43:08,42.805,6.029,CST-1368DR,5095,6716,14101,0.408,551
2021-11-08T12:46:09,42.805,6.029,CST-1368DR,5095,6716,14101,0.408,551
2021-11-08T12:49:11,42.805,6.029,CST-1368DR,5095,6717,14102,0.408,551
2021-11-08T12:52:12,42.805,6.029,CST-1368DR,5095,6716,14100,0.408,551
2021-11-08T12:55:14,42.805,6.029,CST-1368DR,5095,6716,14101,0.408,551
2021-11-08T12:58:16,42.805,6.029,CST-1368DR,5095,6714,14097,0.409,551
2021-11-08T13:01:17,42.805,6.029,CST-1368DR,5095,6715,14099,0.409,551
2021-11-08T13:04:19,42.805,6.029,CST-1368DR,5095,6716,14101,0.408,551
2021-11-08T13:07:20,42.805,6.029,CST-1368DR,5095,6716,14101,0.408,551
2021-11-08T13:10:22,42.805,6.029,CST-1368DR,5095,6717,14103,0.408,551
2021-11-08T13:13:23,42.805,6.029,CST-1368DR,5095,6716,14100,0.408,551
2021-11-08T13:16:25,42.805,6.029,CST-1368DR,5095,6716,14101,0.408,551
2021-11-08T13:19:27,42.805,6.029,CST-1368DR,5095,6714,14096,0.410,551
2021-11-08T13:22:28,42.805,6.029,CST-1368DR,5095,6716,14101,0.408,551
2021-11-08T13:25:30,42.805,6.029,CST-1368DR,5095,6715,14099,0.409,551
2021-11-08T13:28:31,42.805,6.029,CST-1368DR,5095,6715,14099,0.409,551
2021-11-08T13:31:33,42.805,6.029,CST-1368DR,5095,6712,14091,0.411,551
2021-11-08T13:34:35,42.805,6.029,CST-1368DR,5095,6716,14101,0.408,551
2021-11-08T13:37:36,42.805,6.029,CST-1368DR,5095,6716,14100,0.408,551
2021-11-08T13:40:38,42.805,6.029,CST-1368DR,5095,6716,14101,0.408,551
2021-11-08T13:43:39,42.805,6.029,CST-1368DR,5095,6715,14098,0.409,551
2021-11-08T13:46:41,42.805,6.029,CST-1368DR,5095,6716,14101,0.408,551
2021-11-08T13:49:42,42.805,6.029,CST-1368DR,5095,6716,14101,0.408,551
2021-11-08T13:52:44,42.805,6.029,CST-1368DR,5095,6716,14101,0.408,551
2021-11-08T13:55:46,42.805,6.029,CST-1368DR,5095,6716,14101,0.408,551
2021-11-08T13:58:47,42.805,6.029,CST-1368DR,5095,6715,14098,0.409,551
2021-11-08T14:01:49,42.805,6.029,CST-1368DR,5095,6715,14098,0.409,551
2021-11-08T14:04:50,42.805,6.029,CST-1368DR,5095,6715,14099,0.409,551
2021-11-08T14:07:52,42.805,6.029,CST-1368DR,5095,6715,14098,0.409,551
2021-11-08T14:10:54,42.805,6.029,CST-1368DR,5095,6715,14098,0.409,551
2021-11-08T14:13:55,42.805,6.029,CST-1368DR,5095,6716,14100,0.408,551
2021-11-08T14:16:57,42.805,6.029,CST-1368DR,5095,6716,14101,0.408,551
2021-11-08T14:19:58,42.805,6.029,CST-1368DR,5095,6716,14101,0.408,551
2021-11-08T14:23:00,42.805,6.029,CST-1368DR,5095,6715,14099,0.409,551
2021-11-08T14:26:01,42.805,6.029,CST-1368DR,5095,6714,14097,0.409,551
2021-11-08T14:29:03,42.805,6.029,CST-1368DR,5095,6715,14099,0.409,551
2021-11-08T14:32:05,42.805,6.029,CST-1368DR,5095,6712,14092,0.411,551
2021-11-08T14:35:06,42.805,6.029,CST-1368DR,5095,6716,14100,0.408,551
2021-11-08T14:38:08,42.805,6.029,CST-1368DR,5095,6715,14099,0.409,551
2021-11-08T14:41:09,42.805,6.029,CST-1368DR,5095,6716,14100,0.408,551
2021-11-08T14:44:11,42.805,6.029,CST-1368DR,5095,6715,14099,0.409,551
2021-11-08T14:47:12,42.805,6.029,CST-1368DR,5095,6716,14100,0.408,551
2021-11-08T14:50:14,42.805,6.029,CST-1368DR,5095,6716,14100,0.408,551
2021-11-08T14:53:16,42.805,6.029,CST-1368DR,5095,6716,14101,0.408,551
2021-11-08T14:56:17,42.805,6.029,CST-1368DR,5095,6716,14100,0.408,551
2021-11-08T14:59:19,42.805,6.029,CST-1368DR,5095,6715,14098,0.409,551
2021-11-08T15:02:20,42.805,6.029,CST-1368DR,5095,6715,14098,0.409,551
2021-11-08T15:05:22,42.805,6.029,CST-1368DR,5095,6715,14098,0.409,551
2021-11-08T15:08:24,42.805,6.029,CST-1368DR,5095,6715,14098,0.409,551
2021-11-08T15:11:25,42.805,6.029,CST-1368DR,5095,6715,14098,0.409,551
2021-11-08T15:14:27,42.805,6.029,CST-1368DR,5095,6714,14097,0.409,551
2021-11-08T15:17:28,42.805,6.029,CST-1368DR,5095,6714,14097,0.409,551
2021-11-08T15:20:30,42.805,6.029,CST-1368DR,5095,6714,14097,0.409,551
2021-11-08T15:23:31,42.805,6.029,CST-1368DR,5095,6715,14099,0.409,551
2021-11-08T15:26:33,42.805,6.029,CST-1368DR,5095,6710,14089,0.412,551
2021-11-08T15:29:35,42.805,6.029,CST-1368DR,5095,6712,14092,0.411,551
2021-11-08T15:32:36,42.805,6.029,CST-1368DR,5095,6713,14094,0.410,551
2021-11-08T15:35:38,42.805,6.029,CST-1368DR,5095,6713,14094,0.410,551
2021-11-08T15:38:39,42.805,6.029,CST-1368DR,5095,6713,14093,0.410,551
2021-11-08T15:41:41,42.805,6.029,CST-1368DR,5095,6712,14091,0.411,551
2021-11-08T15:44:42,42.805,6.029,CST-1368DR,5095,6713,14093,0.410,551
2021-11-08T15:47:44,42.805,6.029,CST-1368DR,5095,6715,14099,0.409,551
2021-11-08T15:50:46,42.805,6.029,CST-1368DR,5095,6715,14098,0.409,551
2021-11-08T15:53:47,42.805,6.029,CST-1368DR,5095,6715,14098,0.409,551
2021-11-08T15:56:49,42.805,6.029,CST-1368DR,5095,6715,14099,0.409,551
2021-11-08T15:59:50,42.805,6.029,CST-1368DR,5095,6715,14099,0.409,551
2021-11-08T16:02:52,42.805,6.029,CST-1368DR,5095,6712,14092,0.411,551
2021-11-08T16:05:54,42.805,6.029,CST-1368DR,5095,6715,14098,0.409,551
2021-11-08T16:08:55,42.805,6.029,CST-1368DR,5095,6716,14100,0.408,551
2021-11-08T16:11:57,42.805,6.029,CST-1368DR,5095,6715,14099,0.409,551
2021-11-08T16:14:58,42.805,6.029,CST-1368DR,5095,6715,14099,0.409,551
2021-11-08T16:18:00,42.805,6.029,CST-1368DR,5095,6715,14098,0.409,551
2021-11-08T16:21:01,42.805,6.029,CST-1368DR,5095,6715,14098,0.409,551
2021-11-08T16:24:03,42.805,6.029,CST-1368DR,5095,6715,14099,0.409,551
2021-11-08T16:27:05,42.805,6.029,CST-1368DR,5095,6715,14099,0.409,551
2021-11-08T16:30:06,42.805,6.029,CST-1368DR,5095,6714,14097,0.409,551
2021-11-08T16:33:08,42.805,6.029,CST-1368DR,5095,6714,14096,0.410,551
2021-11-08T16:36:09,42.805,6.029,CST-1368DR,5095,6714,14097,0.409,551
2021-11-08T16:39:11,42.805,6.029,CST-1368DR,5095,6715,14098,0.409,551
2021-11-08T16:42:13,42.805,6.029,CST-1368DR,5094,6715,14101,0.408,551
2021-11-08T16:45:14,42.805,6.029,CST-1368DR,5094,6714,14098,0.409,551
2021-11-08T16:48:16,42.805,6.029,CST-1368DR,5094,6715,14101,0.408,551
2021-11-08T16:51:17,42.805,6.029,CST-1368DR,5094,6715,14101,0.408,551
2021-11-08T16:54:19,42.805,6.029,CST-1368DR,5094,6715,14101,0.408,551
2021-11-08T16:57:20,42.805,6.029,CST-1368DR,5095,6715,14098,0.409,551
2021-11-08T17:00:22,42.805,6.029,CST-1368DR,5095,6714,14096,0.410,551